Temp
13 13 13 12 11 11 13 14 15 15 14 13 13 14 12 12 11 11 11 11 12 11 11 11 10 10 10 10 10 10 10 10 10 10 10 10 10 10 10 10 10 10 10 10 10 10 10 10 9
13 13 12 11 12 13 15 15 15 14 14 13 13 13 12 12 13 12 11 12 12 11 11 11 10 10 10 10 10 10 10 10 10 10 10 10 10 10 10 10 10 10 10 10 10 9 9 9 9
13 13 11 12 12 15 15 15 15 14 14 13 13 13 12 11 11 10 11 12 12 11 11 11 10 10 10 10 10 10 10 10 10 10 10 10 10 10 10 10 10 10 10 10 10 9 9 9 9
13 12 12 13 14 16 16 15 14 14 14 14 13 12 12 10 10 11 12 11 12 12 11 11 10 10 10 11 11 11 10 10 10 10 10 10 10 10 10 9 9 10 9 9 9 9 9 9 9
12 11 11 14 16 15 16 15 15 15 15 14 14 11 11 10 10 12 11 9 9 12 11 10 10 10 11 11 11 11 11 11 10 10 10 10 10 9 9 10 9 9 9 9 9 9 9 9 9
11 12 13 15 16 16 16 15 15 14 14 14 12 11 10 10 12 11 9 9 9 10 11 11 10 10 11 11 11 11 11 11 11 11 11 10 10 10 10 10 9 9 9 9 9 9 9 9 9
14 13 15 14 15 15 15 15 15 14 14 14 13 11 11 10 10 10 9 9 9 10 11 11 11 11 11 11 11 11 11 11 11 11 10 10 10 10 9 10 9 9 10 10 9 9 9 9 8
13 13 14 14 15 14 15 15 15 14 13 14 13 11 11 10 10 9 9 9 9 10 11 11 11 11 11 11 11 11 11 11 11 11 10 10 10 10 10 10 9 9 9 9 9 9 9 9 9
14 15 16 16 16 15 16 14 15 14 13 13 13 12 11 11 9 10 9 9 9 9 10 12 11 11 11 11 11 11 11 11 11 11 10 10 10 10 10 10 10 9 9 9 9 9 9 9 9
14 15 17 17 17 17 16 15 14 14 10 12 12 12 11 11 10 10 9 9 9 9 9 11 11 11 11 11 11 11 11 11 11 11 10 10 10 10 10 10 9 9 9 9 9 9 9 9 9
16 17 17 17 17 17 17 16 15 14 12 12 12 11 10 10 10 10 9 9 9 9 9 9 11 11 11 11 11 11 11 11 11 11 11 10 10 10 10 10 10 10 10 10 10 10 10 10 10
17 17 17 17 16 17 17 16 16 15 14 13 12 11 10 10 10 10 10 10 9 9 9 9 10 10 11 11 11 11 11 11 11 11 11 11 11 10 9 10 10 9 11 11 10 10 9 10 9
16 17 17 17 17 17 16 16 16 15 14 13 12 11 10 10 10 11 11 10 10 9 9 8 11 11 11 11 11 10 11 11 11 10 10 10 9 9 10 9 9 9 9 10 10 10 10 9 10
16 18 18 18 17 17 17 17 16 15 14 13 12 11 11 11 11 11 11 10 10 9 10 10 11 11 11 11 11 9 9 8 9 10 10 11 9 9 8 9 9 10 10 9 10 10 10 10 10
15 16 16 18 18 18 17 17 17 15 14 13 12 12 12 11 11 11 11 11 10 10 11 11 12 12 12 12 11 11 10 9 9 11 10 10 10 10 9 10 9 9 8 10 10 9 10 10 10
16 14 16 18 18 18 16 15 17 16 15 14 13 12 12 12 12 11 11 10 10 10 11 11 12 12 12 12 12 11 11 10 8 11 10 10 10 10 10 10 10 9 11 9 10 10 10 10 9
17 15 16 19 19 18 17 14 17 16 15 14 13 13 12 12 12 11 10 10 10 10 10 11 12 12 12 12 12 11 11 9 9 10 11 11 10 10 10 10 10 11 10 10 11 11 10 9 10
19 17 20 19 20 19 19 19 18 17 16 15 14 13 13 12 12 11 11 10 10 10 12 12 12 12 12 12 12 12 11 10 9 9 10 11 11 10 10 11 11 11 11 11 11 11 10 10 10
19 19 19 20 21 21 21 20 17 18 17 16 15 14 13 12 12 11 11 11 10 10 13 13 12 13 13 13 12 12 12 11 10 10 10 10 10 10 11 11 11 11 11 11 11 11 11 11 10
21 19 19 20 20 21 20 20 20 18 18 17 16 15 14 13 12 12 11 10 10 11 14 13 13 13 13 13 12 12 11 9 10 10 10 11 11 11 11 11 10 11 11 11 11 11 11 11 10
21 19 20 20 21 21 20 18 20 20 17 18 17 16 15 14 13 12 11 11 10 11 14 14 13 13 13 13 12 12 12 9 9 11 12 11 11 11 11 11 11 11 11 11 11 11 11 10 11
21 21 20 21 21 21 20 15 19 20 19 18 18 17 16 15 14 13 12 11 11 10 13 14 13 13 13 13 13 12 12 12 11 10 9 12 11 12 12 11 11 11 11 11 11 11 11 10 11
20 20 20 20 20 21 22 20 18 17 15 15 17 18 17 16 15 14 13 12 12 11 11 13 13 13 13 13 13 13 13 12 12 11 11 11 12 12 12 12 12 11 11 11 11 11 11 11 11
19 19 20 20 21 22 21 16 16 19 19 18 17 19 18 17 16 15 14 13 12 12 11 12 14 13 13 13 13 13 13 13 12 11 9 11 12 13 12 12 12 12 12 11 11 11 11 11 11
19 19 20 21 22 22 19 20 18 19 21 20 20 19 19 18 17 16 15 14 13 13 12 12 14 14 13 14 13 13 13 13 13 13 12 13 13 13 13 12 12 12 12 12 12 12 12 12 12
20 20 20 20 21 18 19 18 18 19 21 22 22 21 20 18 18 17 16 15 14 13 13 12 13 14 14 14 14 14 13 13 13 14 13 13 13 13 13 12 12 12 12 12 12 12 12 12 12
20 20 20 20 21 22 19 19 20 20 21 22 22 21 20 19 18 18 17 15 15 14 13 13 13 15 14 14 14 14 14 14 14 14 13 13 13 13 13 12 12 12 12 12 12 12 12 12 12
20 20 20 20 20 20 22 21 20 18 21 22 21 21 20 19 18 18 17 16 15 14 13 13 14 16 15 15 15 15 15 15 14 14 14 14 13 13 13 13 12 12 12 12 12 12 12 12 12
20 20 20 20 20 20 21 22 22 20 20 21 21 20 20 20 19 19 18 17 16 15 14 14 14 16 16 16 16 16 16 15 15 14 14 14 14 13 13 13 13 12 12 12 12 12 12 12 12
20 20 20 20 20 20 20 20 20 20 19 20 19 19 20 19 20 19 18 18 17 16 15 14 14 16 17 16 16 16 16 16 15 15 15 14 14 14 13 13 13 13 12 12 12 12 13 13 13
Height
3155 3155 3155 3155 3155 3153 3152 3155 3156 3156 3157 3157 3158 3160 3161 3161 3160 3164 3164 3164 3168 3171 3173 3174 3175 3176 3177 3177 3178 3178 3180 3181 3183 3184 3185 3187 3187 3188 3189 3189 3189 3190 3190 3190 3191 3192 3192 3193 3193
3156 3156 3156 3156 3159 3152 3158 3158 3155 3156 3158 3159 3161 3162 3162 3162 3160 3160 3163 3166 3170 3172 3174 3175 3176 3178 3178 3179 3179 3180 3181 3182 3184 3185 3186 3188 3189 3189 3190 3190 3191 3192 3192 3192 3193 3193 3194 3194 3194
3157 3157 3156 3146 3152 3156 3156 3156 3158 3159 3158 3160 3161 3163 3162 3163 3163 3164 3165 3167 3170 3173 3175 3176 3178 3179 3179 3180 3180 3181 3182 3184 3185 3186 3187 3189 3190 3190 3191 3192 3193 3193 3194 3194 3194 3194 3195 3195 3196
3157 3160 3159 3157 3153 3154 3154 3158 3160 3159 3159 3161 3162 3162 3164 3164 3165 3164 3166 3169 3171 3173 3176 3178 3179 3180 3180 3181 3181 3183 3184 3185 3186 3187 3189 3191 3191 3191 3192 3193 3194 3194 3194 3194 3195 3195 3196 3196 3197
3162 3163 3151 3156 3156 3156 3158 3159 3158 3158 3160 3162 3162 3161 3163 3166 3164 3166 3169 3172 3173 3174 3177 3179 3180 3180 3181 3181 3183 3185 3185 3186 3187 3188 3190 3192 3192 3193 3193 3195 3195 3195 3195 3195 3195 3196 3196 3197 3198
3162 3159 3157 3157 3154 3157 3158 3158 3158 3159 3160 3161 3161 3161 3163 3164 3165 3167 3172 3176 3173 3176 3177 3179 3180 3182 3183 3182 3184 3186 3187 3187 3188 3190 3192 3193 3194 3195 3195 3196 3197 3197 3196 3195 3196 3197 3197 3198 3198
3158 3154 3154 3156 3154 3158 3157 3159 3158 3160 3161 3162 3162 3160 3164 3164 3166 3170 3175 3177 3178 3175 3178 3180 3181 3183 3184 3184 3185 3186 3188 3189 3190 3191 3193 3195 3195 3196 3197 3198 3198 3198 3197 3197 3198 3198 3199 3199 3198
3162 3159 3159 3161 3160 3156 3161 3160 3162 3162 3162 3166 3162 3163 3163 3165 3167 3172 3177 3178 3181 3176 3179 3181 3182 3184 3184 3185 3186 3187 3189 3190 3192 3193 3194 3195 3197 3198 3199 3199 3199 3199 3199 3199 3199 3199 3199 3199 3199
3169 3165 3163 3160 3160 3157 3159 3160 3162 3164 3159 3168 3166 3164 3163 3164 3169 3173 3177 3180 3181 3178 3178 3179 3182 3183 3185 3186 3187 3188 3190 3191 3193 3194 3195 3197 3198 3198 3200 3201 3201 3200 3200 3200 3200 3199 3200 3200 3199
3167 3165 3164 3162 3158 3158 3159 3160 3157 3158 3146 3163 3162 3164 3163 3165 3170 3175 3177 3179 3181 3182 3181 3180 3182 3184 3185 3187 3188 3190 3191 3192 3194 3195 3196 3198 3199 3200 3201 3202 3202 3202 3201 3201 3201 3201 3200 3200 3200
3164 3162 3164 3161 3158 3158 3159 3160 3156 3158 3160 3159 3160 3162 3164 3166 3170 3175 3177 3180 3182 3182 3183 3182 3183 3185 3185 3187 3189 3190 3192 3193 3195 3196 3197 3199 3199 3200 3202 3202 3202 3203 3202 3202 3201 3201 3200 3200 3198
3165 3165 3164 3162 3158 3158 3159 3159 3158 3154 3156 3157 3160 3163 3163 3167 3170 3175 3178 3180 3183 3181 3184 3184 3184 3184 3185 3188 3189 3190 3192 3194 3195 3196 3197 3199 3199 3201 3201 3201 3203 3203 3202 3202 3201 3202 3200 3198 3197
3163 3162 3164 3163 3160 3159 3159 3159 3159 3159 3159 3159 3161 3162 3164 3168 3171 3176 3179 3181 3183 3183 3184 3186 3185 3187 3188 3189 3190 3191 3192 3192 3195 3197 3197 3198 3200 3202 3202 3203 3203 3203 3203 3202 3201 3202 3200 3200 3200
3161 3158 3157 3160 3160 3159 3159 3159 3159 3158 3160 3160 3159 3162 3165 3168 3172 3175 3178 3180 3181 3182 3182 3183 3185 3187 3189 3190 3190 3191 3193 3195 3195 3197 3199 3199 3200 3202 3202 3203 3203 3204 3202 3200 3202 3201 3201 3203 3203
3155 3160 3156 3155 3159 3161 3159 3160 3160 3158 3158 3159 3160 3161 3165 3168 3171 3173 3177 3179 3180 3180 3181 3182 3184 3186 3188 3190 3191 3192 3193 3196 3197 3196 3198 3199 3200 3201 3202 3203 3202 3203 3203 3203 3202 3201 3202 3203 3203
3156 3162 3157 3154 3158 3160 3151 3150 3155 3158 3157 3158 3159 3161 3164 3167 3170 3171 3174 3176 3179 3180 3178 3181 3182 3185 3187 3189 3191 3192 3193 3197 3197 3196 3198 3199 3200 3201 3202 3202 3202 3203 3202 3202 3202 3204 3204 3204 3204
3161 3160 3157 3157 3157 3157 3149 3136 3153 3156 3157 3157 3159 3160 3163 3166 3168 3167 3171 3172 3175 3177 3176 3178 3181 3183 3186 3188 3190 3192 3193 3195 3196 3196 3197 3199 3200 3201 3202 3202 3202 3202 3202 3203 3204 3203 3202 3204 3203
3153 3157 3154 3156 3155 3155 3152 3150 3151 3153 3156 3156 3158 3160 3161 3163 3166 3166 3168 3171 3173 3174 3175 3177 3180 3181 3184 3186 3189 3190 3192 3193 3195 3197 3197 3199 3200 3201 3201 3201 3202 3204 3204 3204 3204 3204 3206 3207 3203
3154 3157 3156 3150 3153 3151 3149 3148 3155 3149 3152 3156 3156 3158 3159 3161 3163 3165 3166 3168 3171 3171 3172 3175 3178 3180 3183 3185 3187 3189 3190 3191 3193 3196 3196 3198 3199 3199 3200 3200 3202 3204 3205 3204 3205 3206 3207 3207 3206
3159 3155 3159 3152 3150 3151 3148 3151 3149 3148 3146 3153 3155 3155 3158 3159 3161 3163 3163 3166 3168 3168 3169 3173 3176 3178 3181 3183 3186 3188 3189 3190 3192 3194 3195 3196 3198 3199 3199 3201 3202 3203 3204 3204 3205 3206 3209 3207 3206
3154 3153 3155 3153 3149 3147 3147 3152 3142 3144 3149 3152 3153 3153 3155 3155 3158 3159 3160 3164 3165 3165 3167 3171 3174 3177 3180 3182 3184 3186 3188 3191 3192 3192 3193 3195 3197 3199 3201 3201 3202 3202 3203 3204 3205 3207 3208 3208 3208
3152 3150 3150 3149 3147 3141 3143 3152 3144 3142 3148 3151 3150 3151 3151 3152 3153 3155 3158 3161 3163 3163 3165 3168 3172 3175 3178 3180 3182 3185 3187 3189 3190 3192 3193 3194 3196 3198 3199 3201 3202 3203 3203 3205 3206 3207 3207 3208 3209
3152 3150 3149 3147 3144 3141 3137 3139 3141 3146 3148 3137 3141 3147 3149 3149 3151 3153 3155 3159 3163 3163 3162 3165 3169 3172 3176 3178 3180 3183 3185 3187 3189 3190 3192 3193 3194 3196 3198 3200 3202 3203 3206 3207 3207 3209 3208 3208 3209
3152 3150 3148 3144 3138 3134 3137 3138 3151 3142 3131 3134 3132 3144 3144 3146 3148 3151 3154 3157 3160 3162 3162 3162 3166 3169 3173 3176 3178 3181 3183 3185 3187 3189 3191 3192 3193 3196 3198 3200 3202 3203 3205 3205 3207 3209 3209 3209 3208
3149 3149 3144 3139 3130 3130 3134 3137 3142 3136 3129 3128 3134 3136 3138 3142 3146 3148 3152 3155 3157 3161 3161 3161 3161 3166 3169 3173 3175 3179 3181 3184 3186 3187 3189 3191 3193 3195 3197 3199 3201 3202 3204 3205 3206 3207 3209 3208 3208
3143 3144 3141 3137 3131 3135 3141 3139 3137 3131 3133 3134 3131 3133 3134 3139 3144 3147 3149 3152 3154 3157 3159 3161 3159 3164 3167 3170 3173 3176 3179 3182 3185 3187 3190 3191 3192 3194 3196 3197 3199 3201 3202 3204 3205 3206 3206 3206 3206
3136 3138 3140 3136 3133 3129 3133 3135 3133 3130 3131 3130 3131 3130 3134 3137 3140 3143 3144 3147 3151 3153 3155 3158 3158 3161 3164 3168 3171 3174 3177 3180 3184 3186 3188 3190 3192 3192 3194 3197 3198 3200 3201 3202 3203 3203 3203 3203 3202
3136 3136 3137 3136 3135 3129 3126 3126 3128 3134 3124 3126 3131 3131 3131 3136 3139 3142 3143 3145 3149 3152 3154 3155 3156 3159 3163 3166 3169 3171 3175 3178 3182 3184 3187 3189 3191 3192 3193 3195 3196 3198 3199 3199 3199 3200 3201 3201 3200
3132 3132 3133 3133 3135 3132 3128 3124 3118 3118 3121 3129 3130 3132 3132 3134 3139 3142 3144 3145 3148 3150 3153 3154 3155 3157 3160 3164 3167 3170 3173 3176 3179 3182 3184 3187 3189 3190 3191 3193 3194 3195 3196 3197 3198 3198 3197 3197 3197
3129 3129 3128 3126 3127 3126 3129 3121 3124 3128 3129 3132 3130 3133 3129 3132 3137 3140 3143 3145 3146 3149 3151 3152 3153 3155 3158 3161 3164 3168 3171 3173 3176 3179 3182 3184 3186 3188 3189 3190 3191 3193 3194 3194 3195 3195 3194 3193 3192
Wind_Speed
7 5 2 8 2 2 14 16 12 13 11 10 8 8 14 7 2 6 17 16 15 15 14 13 12 11 11 11 10 10 10 10 9 9 7 7 7 8 9 11 9 8 8 8 8 7 6 6 6
6 5 8 4 6 2 12 12 9 11 12 12 12 10 5 10 1 13 18 15 16 15 13 13 11 11 11 11 12 10 11 10 9 9 8 8 9 9 10 9 8 8 7 7 7 7 6 5 6
6 5 5 11 13 9 13 13 10 8 10 7 7 10 4 8 13 17 14 15 16 14 13 11 11 10 11 11 11 10 10 11 11 10 10 10 10 10 9 9 7 7 7 6 6 5 5 4 5
4 7 2 7 17 12 11 8 9 10 8 6 7 2 8 7 14 15 17 15 13 12 13 11 11 10 10 11 11 11 11 12 12 12 12 11 10 10 9 8 7 6 6 5 5 4 4 3 2
12 13 8 6 14 11 10 9 8 9 7 6 6 10 12 14 14 14 18 16 16 14 12 10 9 9 9 10 12 11 11 12 13 12 11 10 10 10 9 9 8 6 4 4 5 4 2 1 1
13 21 4 4 13 8 7 7 7 9 7 6 7 10 11 15 14 17 19 20 11 10 13 10 8 8 9 10 12 11 10 12 12 11 10 10 10 10 9 9 8 10 9 6 5 5 6 4 3
9 4 12 12 10 6 6 5 7 7 7 8 9 10 13 14 17 20 19 19 13 12 12 10 8 7 8 9 11 12 11 10 11 11 10 10 10 9 8 8 8 11 14 11 9 7 8 7 6
13 13 6 2 5 7 5 5 6 4 10 8 13 10 13 18 18 20 18 16 15 10 14 10 8 7 7 8 10 11 11 10 10 10 9 10 9 8 7 7 7 9 11 13 11 8 8 8 9
5 6 4 4 8 10 5 5 5 5 9 7 3 7 14 18 21 20 18 16 17 7 10 10 11 8 7 7 9 10 10 10 9 9 8 9 8 8 6 7 7 8 9 10 9 9 8 8 8
6 9 4 3 5 3 3 2 3 7 6 11 6 12 20 17 21 20 19 18 16 16 9 6 8 8 8 9 10 9 9 9 9 8 7 5 7 6 6 6 7 7 7 7 7 7 7 7 7
1 2 2 1 2 4 4 2 5 7 5 12 10 17 20 20 21 20 17 18 16 14 12 8 4 11 10 11 9 8 9 8 8 8 6 6 4 5 3 4 6 6 7 7 6 6 7 9 13
4 2 1 1 4 4 1 2 2 8 10 7 13 17 20 22 20 18 17 16 16 19 11 5 7 6 5 10 7 8 8 8 8 4 3 4 4 4 4 5 5 5 6 6 8 9 9 11 10
4 1 2 2 2 2 2 2 2 4 7 10 14 18 19 19 18 18 16 16 14 18 13 17 10 9 9 9 9 5 6 7 7 6 4 4 6 4 5 3 0 4 5 6 7 9 9 8 10
10 8 9 5 4 3 3 2 3 6 11 14 11 18 17 17 17 19 18 19 17 21 22 17 10 11 10 10 9 10 7 11 1 4 6 5 4 6 2 4 2 3 2 4 5 4 7 7 9
9 4 13 12 7 4 3 4 0 7 12 14 15 17 15 16 16 18 19 20 17 22 19 17 12 13 12 12 10 9 10 10 7 4 6 4 5 8 7 3 0 2 3 3 1 5 7 9 10
3 7 13 8 9 6 7 14 10 8 12 14 16 18 17 17 18 19 23 25 28 22 18 17 13 13 13 13 12 10 10 14 9 6 7 6 4 7 2 2 0 5 2 1 2 6 7 7 11
9 14 21 4 4 5 10 10 14 11 11 14 18 19 19 19 19 19 21 22 22 22 23 18 15 13 14 13 13 11 10 16 10 3 6 9 6 3 4 3 7 5 3 2 3 6 8 8 12
14 14 10 6 5 0 6 3 10 13 12 14 17 20 22 21 22 22 20 21 20 21 21 19 18 17 15 13 13 13 13 14 10 15 15 6 4 5 4 3 2 1 3 4 5 5 7 8 16
17 14 10 15 7 4 4 10 7 15 15 15 16 21 23 23 22 23 21 22 22 24 18 20 20 18 16 13 13 13 11 12 12 13 9 6 7 2 4 3 4 0 2 3 3 4 5 8 15
14 9 9 18 15 11 12 9 2 12 12 18 20 20 23 23 23 26 23 24 24 25 20 20 19 18 16 14 13 14 12 11 10 13 10 8 6 7 5 5 4 3 3 4 2 3 2 9 12
17 6 8 13 15 13 18 19 11 15 13 18 21 22 22 25 26 26 26 26 24 26 20 17 18 17 16 16 16 14 12 10 11 8 6 7 8 9 7 5 3 2 4 5 2 3 5 9 11
20 20 16 16 18 23 12 10 18 14 17 19 22 24 22 25 25 27 27 26 26 26 20 18 19 18 18 17 15 13 11 10 12 9 12 8 9 7 6 8 5 4 3 8 6 3 5 8 10
20 18 18 20 23 26 19 11 8 1 22 31 26 22 23 23 25 27 27 26 27 25 25 18 19 18 18 18 16 13 12 11 9 11 7 7 6 8 7 7 7 7 4 4 2 2 5 9 12
19 22 23 27 28 23 7 25 17 3 13 14 23 23 20 23 24 24 26 25 24 28 27 22 17 19 18 18 17 14 12 10 10 9 10 7 7 6 5 4 6 7 6 5 3 2 5 8 11
21 23 25 21 19 7 15 4 8 19 6 9 22 17 20 23 23 24 26 26 26 27 29 26 19 17 19 18 18 15 13 12 11 8 8 8 8 7 7 6 6 7 7 7 5 5 6 9 8
26 24 24 20 17 4 16 11 8 24 8 3 8 7 15 19 23 23 23 28 29 28 31 30 23 14 18 18 18 16 15 14 12 10 9 8 7 5 3 4 6 8 8 7 6 7 9 9 9
25 23 24 31 33 31 10 13 13 26 20 10 4 6 18 18 23 24 25 27 28 27 28 30 24 13 17 17 16 16 16 15 14 12 11 8 7 4 3 5 5 5 5 7 7 8 9 10 11
18 19 21 20 18 19 23 13 14 26 20 9 4 6 14 17 19 20 23 23 26 26 25 27 21 12 16 16 17 17 17 16 16 15 13 9 8 8 7 2 2 1 1 3 4 5 6 7 10
13 16 22 21 23 15 14 13 4 9 5 3 10 5 11 15 16 17 19 19 21 24 24 26 20 14 16 16 16 16 16 16 16 16 15 13 11 11 9 5 5 4 4 5 6 8 10 12 12
22 24 25 19 16 20 24 35 4 9 8 7 12 5 14 18 15 14 16 19 21 21 24 27 23 18 16 16 16 16 17 17 19 18 17 17 14 12 11 9 8 7 8 8 9 10 13 14 15
Wind_Direction
134 137 78 52 36 300 122 117 103 104 85 86 82 113 72 98 155 154 138 170 148 148 142 140 136 131 131 133 133 142 148 149 150 141 139 125 113 110 103 98 98 100 99 98 96 92 87 85 81
143 102 88 69 77 57 96 110 90 120 113 94 87 108 95 65 66 141 154 173 152 152 142 136 132 130 126 127 127 131 132 138 146 144 143 129 122 115 104 99 97 99 97 97 94 96 92 94 97
132 76 191 89 103 96 103 91 101 112 120 102 101 90 7 120 116 135 167 164 158 156 144 132 127 129 127 126 123 124 129 132 134 133 134 129 122 108 100 98 99 98 97 102 99 95 99 94 99
129 356 356 227 122 107 98 95 105 108 124 104 127 96 141 139 134 169 151 162 158 168 146 133 125 128 128 126 124 128 131 130 128 127 128 124 118 108 105 103 101 99 100 107 102 100 86 88 101
19 314 348 148 95 107 107 113 118 109 111 113 142 120 125 129 176 152 150 145 154 145 151 143 138 129 132 130 127 132 132 128 126 126 125 124 116 100 92 96 91 81 84 109 113 93 51 352 341
67 57 288 133 94 92 97 112 107 115 131 140 136 138 138 158 160 148 147 143 201 189 168 157 145 134 132 129 129 135 134 131 129 129 130 128 110 99 92 95 81 58 59 86 84 63 45 27 347
17 25 83 45 111 123 115 137 153 120 123 136 142 146 144 150 154 148 150 152 173 220 168 165 149 144 142 135 133 136 136 137 137 138 137 129 110 106 102 98 80 63 63 70 72 64 52 39 28
292 330 274 234 71 198 159 144 119 132 114 129 177 150 172 163 153 149 156 156 161 240 171 175 158 162 153 147 141 140 141 144 143 144 144 133 117 112 100 86 76 68 65 68 66 56 53 48 42
257 293 134 100 73 146 138 152 160 126 154 160 191 201 181 172 155 151 161 164 166 193 259 178 154 159 167 161 151 145 148 148 150 148 148 139 129 110 96 88 72 66 66 66 66 66 63 52 32
68 232 311 47 52 93 98 190 196 209 266 168 188 160 170 168 160 161 174 172 176 183 207 228 159 165 180 170 157 156 156 156 157 156 153 157 147 101 100 85 79 65 64 67 67 56 52 45 37
27 280 173 34 119 95 112 134 309 311 39 158 167 158 169 166 166 171 174 176 174 193 219 222 186 172 197 172 158 167 167 174 154 173 154 167 142 103 112 108 87 72 67 60 56 45 35 29 15
243 150 79 86 81 77 98 129 348 350 36 141 151 181 172 168 170 175 172 179 170 205 214 198 232 165 209 150 174 185 174 172 153 162 151 152 118 98 57 76 92 56 33 77 59 16 6 358 0
322 249 302 297 317 122 110 126 87 158 98 136 171 168 166 170 173 178 178 187 187 204 186 202 185 202 198 171 198 181 164 140 152 169 178 142 143 198 127 195 101 334 26 22 4 356 350 330 354
336 208 215 211 250 219 203 130 105 159 142 152 163 162 165 172 179 184 188 192 202 203 220 223 194 204 199 197 198 195 174 178 329 201 180 179 182 160 143 180 165 256 289 5 13 337 349 12 3
319 238 214 184 203 214 214 206 131 166 157 163 164 163 167 181 185 191 187 194 199 221 235 224 196 204 198 201 201 193 176 167 229 181 141 166 176 165 210 198 244 98 264 37 358 8 349 11 4
208 215 192 154 177 160 199 222 165 193 166 170 175 172 176 180 191 197 190 200 196 215 226 214 216 201 202 198 201 201 171 196 232 206 156 190 215 188 172 103 262 292 34 86 347 325 20 18 10
314 211 207 105 135 168 253 238 146 187 179 183 186 185 187 185 195 214 188 200 190 206 219 217 210 213 205 203 204 205 193 198 218 223 195 178 189 202 181 194 311 26 25 13 359 24 29 -0 25
323 205 75 204 135 322 237 259 187 190 194 200 193 199 195 198 196 220 199 196 194 212 218 214 211 216 208 206 208 212 207 207 200 192 224 200 210 216 222 238 168 69 44 15 45 42 38 46 51
287 44 18 298 312 305 290 258 288 195 194 206 213 204 207 203 201 212 204 205 200 215 222 212 213 221 213 210 210 217 211 200 201 212 239 245 257 215 224 257 79 211 83 52 37 31 71 71 40
286 94 336 293 303 298 355 324 304 211 203 209 213 212 211 205 205 204 213 204 199 219 225 213 216 223 215 212 213 213 212 215 209 229 216 248 223 236 238 221 217 181 148 136 71 80 86 40 26
283 79 304 305 303 291 288 258 284 250 237 224 214 215 209 213 208 205 213 203 205 225 229 221 221 220 219 218 213 221 218 195 247 247 228 219 226 230 224 213 208 188 158 158 119 115 48 36 28
287 318 311 311 309 299 207 187 250 220 250 234 215 209 210 210 212 217 207 203 215 224 238 227 221 221 220 222 227 228 228 221 222 233 235 237 218 224 209 196 189 174 195 145 165 133 39 13 13
291 308 308 304 297 289 280 217 202 60 298 252 210 209 209 208 212 209 210 210 209 221 243 238 223 222 223 228 231 226 217 225 223 225 229 228 206 210 191 195 188 175 189 166 189 62 359 12 12
281 291 291 292 278 268 305 47 321 331 277 240 206 207 205 208 209 213 216 215 215 226 242 257 224 227 225 227 231 224 223 224 223 216 220 225 224 198 184 192 193 188 191 210 237 304 353 350 1
268 276 279 282 283 351 39 351 354 230 263 279 191 194 205 203 207 213 209 213 219 218 234 250 249 220 227 221 226 223 221 221 225 218 207 210 201 207 189 199 203 218 223 222 246 288 319 341 342
257 261 264 278 292 83 308 338 295 248 279 229 189 188 190 193 198 205 210 210 217 217 225 238 252 224 223 224 214 216 213 213 214 216 210 202 211 192 193 221 230 235 241 257 269 292 307 314 323
246 246 259 276 284 287 198 232 288 265 212 181 52 140 168 184 191 203 217 210 214 226 226 233 247 219 220 219 213 211 214 213 209 210 204 200 201 211 201 198 230 244 267 265 278 285 300 317 320
255 273 291 277 286 285 282 255 203 288 220 133 172 130 166 177 187 195 211 210 207 217 220 231 240 223 216 215 212 211 212 214 212 208 205 205 204 224 256 232 215 242 257 265 272 289 329 340 324
253 249 248 257 257 284 292 292 35 139 90 101 155 79 156 173 189 198 209 215 216 219 216 228 233 226 211 214 215 218 217 215 217 215 216 218 224 232 250 258 274 283 294 308 321 328 323 324 320
280 260 266 281 240 241 263 277 269 213 189 203 179 139 154 149 190 199 208 219 226 221 221 226 238 234 222 217 224 223 223 223 224 227 230 233 239 244 255 269 273 281 288 296 306 309 308 309 311